Location: Forst
(46.9333°N, 15.4333°E)
Time: 21:02:34
(UTC+00:00)

N. Korean satellite - Pass Details

Date: 01 October 2021
Orbit: 450 x 495 km, 97.3° (Epoch: 25 October)

Event Time Altitude Azimuth Distance (km) Brightness Sun altitude
Rises 03:50:00 0° 20° (NNE) 2,549 10.6 -12.2°
Reaches altitude 10° 03:52:11 10° 29° (NNE) 1,672 9.8 -11.9°
Maximum altitude 03:55:31 36° 97° (E) 791 8.3 -11.3°
Drops below altitude 10° 03:58:53 10° 166° (SSE) 1,678 9.4 -10.7°
Sets 04:01:04 0° 175° (S) 2,559 10.2 -10.4°
